Weather in Burlington

United States     44°28′33″N   73°12′21″W
temp.,
°C
wind,
m/s
gust,
m/s
humid.,
%
clouds,
%
prec.,
mm/h
press.,
hPa
HPBL,
m
28 may, sat
sat2823:00+18ssw81493100 3.2 1002365
02:00+16se229948 5.8 100420
05:00+16s339972 1.3 100343
08:00+16sw139878 3.7 1004159
11:00+16n4795100 1.4 1006184
14:00+15nne359024 1.9 1007119
17:00+17n711632 0.0 1008459
20:00+16nw34755 0.0 101046
29 may, sun
sun2923:00+14sse118128 0.0 101211
02:00+12s338396 0.0 101360
05:00+12sse348149 0.0 101599
08:00+13s457719 0.0 1018186
11:00+17s556958 0.0 1017261
14:00+19s3360100 0.0 1016474
17:00+18n337335 0.0 101640
20:00+17n017264 0.0 101611
30 may, mon
mon3023:00+16ssw117854 0.0 101711
02:00+14s228282 0.0 101814
05:00+13sse348978 0.0 101858
08:00+15s458419 0.0 1019152
11:00+18s557382 0.0 1017238
14:00+19ssw1274100 0.0 1016274
17:00+19nnw3480100 0.0 101586
20:00+17n2292100 0.0 101614
31 may, tue
tue3123:00+16sse1195100 0.0 101511
02:00+16s339454 0.0 101620
05:00+15wnw1195100 0.0 101611
08:00+15n4595100 0.0 1018122
11:00+16nnw2292100 0.0 1018143
14:00+17nnw4590100 0.0 1017257
17:00+17nnw4690100 0.0 1015187
20:00+17nnw3395100 0.0 101539
1 june, wed
wed123:00+16sw119785 0.0 101516
02:00+16s229799 1.9 101415
05:00+16sse349648 0.6 101345
08:00+17s469660 0.6 1012105
11:00+21sse458320 0.1 1010178
14:00+24wnw4105796 0.1 1007405
17:00+23nw6106993 0.0 1006295
20:00+20nw498457 0.4 1007178